Office,East Kilbride
Station Name,Linnbrane
Location Code,133107
Parameter,River Stage(SG)
Timeseries,SG.15m.Cmd
Copyright SEPA 2018. This SEPA Data is licensed under the Open Government Licence 3.0., http://www.nationalarchives.gov.uk/doc/open-government-licence/version/3
Date/Time,SG(m)
20/12/2020 00:30:00,1.797
20/12/2020 00:45:00,1.794
20/12/2020 01:00:00,1.799
20/12/2020 01:15:00,1.803
20/12/2020 01:30:00,1.793
20/12/2020 01:45:00,1.801
20/12/2020 02:00:00,1.79
20/12/2020 02:15:00,1.796
20/12/2020 02:30:00,1.794
20/12/2020 02:45:00,1.793
20/12/2020 03:00:00,1.796
20/12/2020 03:15:00,1.794
20/12/2020 03:30:00,1.799
20/12/2020 03:45:00,1.793
20/12/2020 04:00:00,1.793
20/12/2020 04:15:00,1.797
20/12/2020 04:30:00,1.801
20/12/2020 04:45:00,1.79
20/12/2020 05:00:00,1.789
20/12/2020 05:15:00,1.787
20/12/2020 05:30:00,1.795
20/12/2020 05:45:00,1.8
20/12/2020 06:00:00,1.797
20/12/2020 06:15:00,1.786
20/12/2020 06:30:00,1.79
20/12/2020 06:45:00,1.799
20/12/2020 07:00:00,1.798
20/12/2020 07:15:00,1.79
20/12/2020 07:30:00,1.796
20/12/2020 07:45:00,1.795
20/12/2020 08:00:00,1.798
20/12/2020 08:15:00,1.8
20/12/2020 08:30:00,1.795
20/12/2020 08:45:00,1.79
20/12/2020 09:00:00,1.79
20/12/2020 09:15:00,1.797
20/12/2020 09:30:00,1.793
20/12/2020 09:45:00,1.795
20/12/2020 10:00:00,1.792
20/12/2020 10:15:00,1.795
20/12/2020 10:30:00,1.793
20/12/2020 10:45:00,1.794
20/12/2020 11:00:00,1.801
20/12/2020 11:15:00,1.799
20/12/2020 11:30:00,1.798
20/12/2020 11:45:00,1.798
20/12/2020 12:00:00,1.801
20/12/2020 12:15:00,1.801
20/12/2020 12:30:00,1.789
20/12/2020 12:45:00,1.796
20/12/2020 13:00:00,1.798
20/12/2020 13:15:00,1.798
20/12/2020 13:30:00,1.804
20/12/2020 13:45:00,1.799
20/12/2020 14:00:00,1.803
20/12/2020 14:15:00,1.801
20/12/2020 14:30:00,1.796
20/12/2020 14:45:00,1.798
20/12/2020 15:00:00,1.796
20/12/2020 15:15:00,1.804
20/12/2020 15:30:00,1.802
20/12/2020 15:45:00,1.799
20/12/2020 16:00:00,1.802
20/12/2020 16:15:00,1.797
20/12/2020 16:30:00,1.799
20/12/2020 16:45:00,1.796
20/12/2020 17:00:00,1.795
20/12/2020 17:15:00,1.797
20/12/2020 17:30:00,1.799
20/12/2020 17:45:00,1.793
20/12/2020 18:00:00,1.8
20/12/2020 18:15:00,1.803
20/12/2020 18:30:00,1.796
20/12/2020 18:45:00,1.798
20/12/2020 19:00:00,1.799
20/12/2020 19:15:00,1.801
20/12/2020 19:30:00,1.8
20/12/2020 19:45:00,1.801
20/12/2020 20:00:00,1.799
20/12/2020 20:15:00,1.8
20/12/2020 20:30:00,1.799
20/12/2020 20:45:00,1.792
20/12/2020 21:00:00,1.803
20/12/2020 21:15:00,1.798
20/12/2020 21:30:00,1.793
20/12/2020 21:45:00,1.8
20/12/2020 22:00:00,1.795
20/12/2020 22:15:00,1.794
20/12/2020 22:30:00,1.794
20/12/2020 22:45:00,1.795
20/12/2020 23:00:00,1.788
20/12/2020 23:15:00,1.796
20/12/2020 23:30:00,1.796
20/12/2020 23:45:00,1.797
21/12/2020 00:00:00,1.796
21/12/2020 00:15:00,1.79
21/12/2020 00:30:00,1.795
21/12/2020 00:45:00,1.791
21/12/2020 01:00:00,1.798
21/12/2020 01:15:00,1.789
21/12/2020 01:30:00,1.795
21/12/2020 01:45:00,1.794
21/12/2020 02:00:00,1.792
21/12/2020 02:15:00,1.795
21/12/2020 02:30:00,1.793
21/12/2020 02:45:00,1.787
21/12/2020 03:00:00,1.79
21/12/2020 03:15:00,1.793
21/12/2020 03:30:00,1.791
21/12/2020 03:45:00,1.791
21/12/2020 04:00:00,1.791
21/12/2020 04:15:00,1.793
21/12/2020 04:30:00,1.794
21/12/2020 04:45:00,1.795
21/12/2020 05:00:00,1.789
21/12/2020 05:15:00,1.79
21/12/2020 05:30:00,1.793
21/12/2020 05:45:00,1.79
21/12/2020 06:00:00,1.793
21/12/2020 06:15:00,1.796
21/12/2020 06:30:00,1.793
21/12/2020 06:45:00,1.786
21/12/2020 07:00:00,1.802
21/12/2020 07:15:00,1.79
21/12/2020 07:30:00,1.79
21/12/2020 07:45:00,1.791
21/12/2020 08:00:00,1.796
21/12/2020 08:15:00,1.794
21/12/2020 08:30:00,1.8
21/12/2020 08:45:00,1.793
21/12/2020 09:00:00,1.794
21/12/2020 09:15:00,1.789
21/12/2020 09:30:00,1.794
21/12/2020 09:45:00,1.796
21/12/2020 10:00:00,1.793
21/12/2020 10:15:00,1.799
21/12/2020 10:30:00,1.798
21/12/2020 10:45:00,1.793
21/12/2020 11:00:00,1.794
21/12/2020 11:15:00,1.797
21/12/2020 11:30:00,1.799
21/12/2020 11:45:00,1.796
21/12/2020 12:00:00,1.799
21/12/2020 12:15:00,1.794
21/12/2020 12:30:00,1.806
21/12/2020 12:45:00,1.807
21/12/2020 13:00:00,1.798
21/12/2020 13:15:00,1.803
21/12/2020 13:30:00,1.797
21/12/2020 13:45:00,1.805
21/12/2020 14:00:00,1.804
21/12/2020 14:15:00,1.805
21/12/2020 14:30:00,1.801
21/12/2020 14:45:00,1.8
21/12/2020 15:00:00,1.803
21/12/2020 15:15:00,1.803
21/12/2020 15:30:00,1.81
21/12/2020 15:45:00,1.803
21/12/2020 16:00:00,1.8
21/12/2020 16:15:00,1.805
21/12/2020 16:30:00,1.806
21/12/2020 16:45:00,1.803
21/12/2020 17:00:00,1.808
21/12/2020 17:15:00,1.807
21/12/2020 17:30:00,1.806
21/12/2020 17:45:00,1.808
21/12/2020 18:00:00,1.804
21/12/2020 18:15:00,1.812
21/12/2020 18:30:00,1.805
21/12/2020 18:45:00,1.813
21/12/2020 19:00:00,1.809
21/12/2020 19:15:00,1.809
21/12/2020 19:30:00,1.809
21/12/2020 19:45:00,1.809
21/12/2020 20:00:00,1.813
21/12/2020 20:15:00,1.803
21/12/2020 20:30:00,1.814
21/12/2020 20:45:00,1.809
21/12/2020 21:00:00,1.808
21/12/2020 21:15:00,1.814
21/12/2020 21:30:00,1.807
21/12/2020 21:45:00,1.808
21/12/2020 22:00:00,1.81
21/12/2020 22:15:00,1.803
21/12/2020 22:30:00,1.806
21/12/2020 22:45:00,1.803
21/12/2020 23:00:00,1.806
21/12/2020 23:15:00,1.804
21/12/2020 23:30:00,1.803
21/12/2020 23:45:00,1.796
22/12/2020 00:00:00,1.797
22/12/2020 00:15:00,1.803
22/12/2020 00:30:00,1.801
22/12/2020 00:45:00,1.799
22/12/2020 01:00:00,1.796
22/12/2020 01:15:00,1.797
22/12/2020 01:30:00,1.796
22/12/2020 01:45:00,1.804
22/12/2020 02:00:00,1.799
22/12/2020 02:15:00,1.796
22/12/2020 02:30:00,1.794
22/12/2020 02:45:00,1.794
22/12/2020 03:00:00,1.796
22/12/2020 03:15:00,1.8
22/12/2020 03:30:00,1.794
22/12/2020 03:45:00,1.792
22/12/2020 04:00:00,1.803
22/12/2020 04:15:00,1.799
22/12/2020 04:30:00,1.794
22/12/2020 04:45:00,1.79
22/12/2020 05:00:00,1.79
22/12/2020 05:15:00,1.789
22/12/2020 05:30:00,1.785
22/12/2020 05:45:00,1.786
22/12/2020 06:00:00,1.793
22/12/2020 06:15:00,1.789
22/12/2020 06:30:00,1.786
22/12/2020 06:45:00,1.789
22/12/2020 07:00:00,1.785
22/12/2020 07:15:00,1.782
22/12/2020 07:30:00,1.783
22/12/2020 07:45:00,1.788
22/12/2020 08:00:00,1.786
22/12/2020 08:15:00,1.789
22/12/2020 08:30:00,1.783
22/12/2020 08:45:00,1.784
22/12/2020 09:00:00,1.783
22/12/2020 09:15:00,1.786
22/12/2020 09:30:00,1.788
22/12/2020 09:45:00,1.785
22/12/2020 10:00:00,1.793
22/12/2020 10:15:00,1.782
22/12/2020 10:30:00,1.79
22/12/2020 10:45:00,1.785
22/12/2020 11:00:00,1.778
22/12/2020 11:15:00,1.79
22/12/2020 11:30:00,1.78
22/12/2020 11:45:00,1.793
22/12/2020 12:00:00,1.776
22/12/2020 12:15:00,1.786
22/12/2020 12:30:00,1.785
22/12/2020 12:45:00,1.784
22/12/2020 13:00:00,1.784
22/12/2020 13:15:00,1.782
22/12/2020 13:30:00,1.78
22/12/2020 13:45:00,1.782
22/12/2020 14:00:00,1.783
22/12/2020 14:15:00,1.789
22/12/2020 14:30:00,1.776
22/12/2020 14:45:00,1.783
22/12/2020 15:00:00,1.779
22/12/2020 15:15:00,1.784
22/12/2020 15:30:00,1.779
22/12/2020 15:45:00,1.773
22/12/2020 16:00:00,1.774
22/12/2020 16:15:00,1.775
22/12/2020 16:30:00,1.78
22/12/2020 16:45:00,1.776
22/12/2020 17:00:00,1.78
22/12/2020 17:15:00,1.776
22/12/2020 17:30:00,1.775
22/12/2020 17:45:00,1.78
22/12/2020 18:00:00,1.776
22/12/2020 18:15:00,1.775
22/12/2020 18:30:00,1.774
22/12/2020 18:45:00,1.772
22/12/2020 19:00:00,1.783
22/12/2020 19:15:00,1.781
22/12/2020 19:30:00,1.772
22/12/2020 19:45:00,1.778
22/12/2020 20:00:00,1.779
22/12/2020 20:15:00,1.777
22/12/2020 20:30:00,1.77
22/12/2020 20:45:00,1.78
22/12/2020 21:00:00,1.776
22/12/2020 21:15:00,1.77
22/12/2020 21:30:00,1.776
22/12/2020 21:45:00,1.772
22/12/2020 22:00:00,1.772
22/12/2020 22:15:00,1.764
22/12/2020 22:30:00,1.77
22/12/2020 22:45:00,1.77
22/12/2020 23:00:00,1.762
22/12/2020 23:15:00,1.77
22/12/2020 23:30:00,1.77
22/12/2020 23:45:00,1.763
23/12/2020 00:00:00,1.766
23/12/2020 00:15:00,1.766
23/12/2020 00:30:00,1.761
23/12/2020 00:45:00,1.763
23/12/2020 01:00:00,1.761
23/12/2020 01:15:00,1.764
23/12/2020 01:30:00,1.76
23/12/2020 01:45:00,1.754
23/12/2020 02:00:00,1.762
23/12/2020 02:15:00,1.766
23/12/2020 02:30:00,1.756
23/12/2020 02:45:00,1.768
23/12/2020 03:00:00,1.753
23/12/2020 03:15:00,1.763
23/12/2020 03:30:00,1.76
23/12/2020 03:45:00,1.756
23/12/2020 04:00:00,1.759
23/12/2020 04:15:00,1.748
23/12/2020 04:30:00,1.757
23/12/2020 04:45:00,1.751
23/12/2020 05:00:00,1.752
23/12/2020 05:15:00,1.757
23/12/2020 05:30:00,1.745
23/12/2020 05:45:00,1.749
23/12/2020 06:00:00,1.754
23/12/2020 06:15:00,1.752
23/12/2020 06:30:00,1.75
23/12/2020 06:45:00,1.748
23/12/2020 07:00:00,1.751
23/12/2020 07:15:00,1.747
23/12/2020 07:30:00,1.748
23/12/2020 07:45:00,1.747
23/12/2020 08:00:00,1.745
23/12/2020 08:15:00,1.742
23/12/2020 08:30:00,1.747
23/12/2020 08:45:00,1.748
23/12/2020 09:00:00,1.748
23/12/2020 09:15:00,1.741
23/12/2020 09:30:00,1.747
23/12/2020 09:45:00,1.75
23/12/2020 10:00:00,1.746
23/12/2020 10:15:00,1.741
23/12/2020 10:30:00,1.745
23/12/2020 10:45:00,1.744
23/12/2020 11:00:00,1.737
23/12/2020 11:15:00,1.746
23/12/2020 11:30:00,1.751
23/12/2020 11:45:00,1.741
23/12/2020 12:00:00,1.745
23/12/2020 12:15:00,1.743
23/12/2020 12:30:00,1.747
23/12/2020 12:45:00,1.742
23/12/2020 13:00:00,1.743
23/12/2020 13:15:00,1.741
23/12/2020 13:30:00,1.74
23/12/2020 13:45:00,1.75
23/12/2020 14:00:00,1.745
23/12/2020 14:15:00,1.743
23/12/2020 14:30:00,1.743
23/12/2020 14:45:00,1.743
23/12/2020 15:00:00,1.747
23/12/2020 15:15:00,1.747
23/12/2020 15:30:00,1.741
23/12/2020 15:45:00,1.739
23/12/2020 16:00:00,1.74
23/12/2020 16:15:00,1.752
23/12/2020 16:30:00,1.739
23/12/2020 16:45:00,1.74
23/12/2020 17:00:00,1.745
23/12/2020 17:15:00,1.737
23/12/2020 17:30:00,1.738
23/12/2020 17:45:00,1.737
23/12/2020 18:00:00,1.746
23/12/2020 18:15:00,1.737
23/12/2020 18:30:00,1.739
23/12/2020 18:45:00,1.739
23/12/2020 19:00:00,1.742
23/12/2020 19:15:00,1.737
23/12/2020 19:30:00,1.742
23/12/2020 19:45:00,1.729
23/12/2020 20:00:00,1.734
23/12/2020 20:15:00,1.726
23/12/2020 20:30:00,1.736
23/12/2020 20:45:00,1.74
23/12/2020 21:00:00,1.728
23/12/2020 21:15:00,1.73
23/12/2020 21:30:00,1.727
23/12/2020 21:45:00,1.727
23/12/2020 22:00:00,1.727
23/12/2020 22:15:00,1.727
23/12/2020 22:30:00,1.727
23/12/2020 22:45:00,1.73
23/12/2020 23:00:00,1.728
23/12/2020 23:15:00,1.727
23/12/2020 23:30:00,1.723
23/12/2020 23:45:00,1.721
24/12/2020 00:00:00,1.718
